FW4235 Weather Reports


time (UTC)temp
C
wind
direction
speed
KPH
gust
KPH
rain 1hr
cm
rain 24hr
cm
rain mn
cm
humidity
%
barometer
mb
20260502221507 8 324 0.0 0.0 0.00 0.00 0.00 69 1015.2
20260502221007 8 58 0.0 0.0 0.00 0.00 0.00 68 1015.5
20260502220507 9 37 0.0 0.0 0.00 0.00 0.00 65 1015.7
20260502220007 9 43 0.0 0.0 0.00 0.00 0.00 63 1015.8
20260502215508 9 355 0.0 0.0 0.00 0.00 0.00 62 1015.7
20260502215006 9 310 0.0 0.0 0.00 0.00 0.00 62 1015.5
20260502214506 9 300 0.0 0.0 0.00 0.00 0.00 62 1015.5
20260502214006 9 343 0.0 0.0 0.00 0.00 0.00 61 1015.6
20260502213506 9 318 0.0 0.0 0.00 0.00 0.00 61 1015.7
20260502213007 9 305 0.0 0.0 0.00 0.00 0.00 61 1015.7
20260502211506 9 267 0.0 0.0 0.00 0.00 0.00 60 1015.6
20260502210007 9 294 0.0 0.0 0.00 0.00 0.00 60 1015.8
20260502205506 9 319 0.0 0.0 0.00 0.00 0.00 59 1015.8
20260502205006 9 321 0.0 0.0 0.00 0.00 0.00 59 1015.9
20260502204506 9 321 0.0 0.0 0.00 0.00 0.00 58 1015.9
20260502204006 10 328 0.0 0.0 0.00 0.00 0.00 58 1015.9
20260502203506 10 330 0.0 0.0 0.00 0.00 0.00 58 1015.9
20260502203007 10 343 0.0 0.0 0.00 0.00 0.00 58 1016.0
20260502202506 9 338 0.0 0.0 0.00 0.00 0.00 58 1016.0
20260502202006 9 323 0.0 0.0 0.00 0.00 0.00 57 1016.0
20260502201507 9 325 0.0 0.0 0.00 0.00 0.00 57 1016.0
20260502201006 9 328 0.0 0.0 0.00 0.00 0.00 57 1016.0
20260502200007 9 324 0.0 0.0 0.00 0.00 0.00 55 1016.1
20260502195006 10 324 0.0 0.0 0.00 0.00 0.00 53 1016.2
20260502194507 10 326 0.0 0.0 0.00 0.00 0.00 52 1016.2
20260502194007 10 333 0.0 0.0 0.00 0.00 0.00 52 1016.1
20260502193507 10 320 0.0 0.0 0.00 0.00 0.00 52 1016.1
20260502193007 10 357 0.0 0.0 0.00 0.00 0.00 52 1016.0
20260502192506 10 304 0.0 0.0 0.00 0.00 0.00 51 1016.0
20260502192007 10 348 0.0 0.0 0.00 0.00 0.00 51 1016.0
20260502191506 10 4 0.0 0.0 0.00 0.00 0.00 51 1016.0
20260502191006 10 7 0.0 0.0 0.00 0.00 0.00 50 1016.0
20260502190507 10 21 0.0 0.0 0.00 0.00 0.00 50 1016.0
20260502190006 10 344 0.0 0.0 0.00 0.00 0.00 50 1016.0
20260502185507 10 358 0.0 0.0 0.00 0.00 0.00 50 1015.9
20260502185007 10 8 0.0 0.0 0.00 0.00 0.00 50 1015.9
20260502184007 10 4 0.0 0.0 0.00 0.00 0.00 50 1015.9
20260502183507 10 10 0.0 0.0 0.00 0.00 0.00 50 1015.8
20260502183006 10 1 0.0 0.0 0.00 0.00 0.00 50 1015.8
20260502182506 10 15 0.0 0.0 0.00 0.00 0.00 50 1015.7
20260502182007 10 5 0.0 0.0 0.00 0.00 0.00 49 1015.6
20260502181506 10 355 0.0 0.0 0.00 0.00 0.00 49 1015.6
20260502181006 10 341 0.0 0.0 0.00 0.00 0.00 49 1015.7
20260502170507 11 59 0.0 0.0 0.00 0.00 0.00 46 1015.6
20260502164007 11 82 0.0 0.0 0.00 0.00 0.00 46 1015.4
20260502163507 11 63 0.0 0.0 0.00 0.00 0.00 46 1015.4
20260502162506 11 54 0.0 0.0 0.00 0.00 0.00 46 1015.5
20260502161506 11 62 0.0 0.0 0.00 0.00 0.00 45 1015.5
20260502161006 11 11 0.0 0.0 0.00 0.00 0.00 45 1015.5
20260502160507 11 359 0.0 0.0 0.00 0.00 0.00 45 1015.6
20260502151007 11 58 0.0 0.0 0.00 0.00 0.00 47 1015.8
20260502150506 11 70 0.0 0.0 0.00 0.00 0.00 46 1015.8
20260502130506 12 18 0.0 0.0 0.00 0.00 0.00 44 1016.2
20260502123506 12 59 0.0 0.0 0.00 0.00 0.00 49 1016.2
20260502123006 11 37 0.0 0.0 0.00 0.00 0.00 49 1016.2
20260502122506 11 13 0.0 0.0 0.00 0.00 0.00 49 1016.3
20260502122006 12 14 0.0 0.0 0.00 0.00 0.00 49 1016.4
20260502121506 12 22 0.0 0.0 0.00 0.00 0.00 48 1016.2
20260502121006 12 359 0.0 0.0 0.00 0.00 0.00 46 1016.2
20260502115506 12 56 0.0 0.0 0.00 0.00 0.00 46 1016.2
20260502115007 12 35 0.0 0.0 0.00 0.00 0.00 47 1016.2
20260502114006 12 49 0.0 0.0 0.00 0.00 0.00 48 1016.4
20260502113506 12 26 0.0 0.0 0.00 0.00 0.00 49 1016.3
20260502113007 12 47 0.0 0.0 0.00 0.00 0.00 49 1016.3
20260502112506 12 13 0.0 0.0 0.00 0.00 0.00 49 1016.3
20260502111507 12 82 0.0 0.0 0.00 0.00 0.00 52 1016.2
20260502111008 12 21 0.0 0.0 0.00 0.00 0.00 51 1016.2
20260502110007 12 68 0.0 0.0 0.00 0.00 0.00 54 1016.3
20260502105007 12 10 0.0 0.0 0.00 0.00 0.00 55 1016.4
20260502104507 11 29 0.0 0.0 0.00 0.00 0.00 57 1016.5
20260502104008 11 28 0.0 0.0 0.00 0.00 0.00 56 1016.6
20260502103508 12 29 0.0 0.0 0.00 0.00 0.00 53 1016.8
20260502103008 12 27 0.0 0.0 0.00 0.00 0.00 51 1016.6
20260502102508 13 53 0.0 0.0 0.00 0.00 0.00 52 1016.7
20260502102008 12 55 0.0 0.0 0.00 0.00 0.00 53 1016.7
20260502101507 12 21 0.0 0.0 0.00 0.00 0.00 54 1016.8
20260502101007 12 76 0.0 0.0 0.00 0.00 0.00 54 1016.8
20260502091508 11 15 0.0 0.0 0.00 0.00 0.00 60 1016.7
20260502091008 11 65 0.0 0.0 0.00 0.00 0.00 58 1016.8
20260502090507 11 41 0.0 0.0 0.00 0.00 0.00 59 1016.9
20260502071508 11 50 0.0 0.0 0.00 0.00 0.00 59 1016.6
20260502071007 11 77 0.0 0.0 0.00 0.00 0.00 58 1016.6
20260502070507 11 70 0.0 0.0 0.00 0.00 0.00 59 1016.6
20260502070007 11 75 0.0 0.0 0.00 0.00 0.00 59 1016.6
20260502065507 11 62 0.0 0.0 0.00 0.00 0.00 59 1016.5
20260502065007 11 72 0.0 0.0 0.00 0.00 0.00 58 1016.5
20260502064008 11 57 0.0 0.0 0.00 0.00 0.00 56 1016.4
20260502063507 11 69 0.0 0.0 0.00 0.00 0.00 56 1016.4
20260502062507 11 69 0.0 0.0 0.00 0.00 0.00 56 1016.3
20260502061507 11 59 0.0 0.0 0.00 0.00 0.00 56 1016.3
20260502061008 11 51 0.0 0.0 0.00 0.00 0.00 58 1016.3
20260502060507 11 79 0.0 0.0 0.00 0.00 0.00 57 1016.3
20260502055507 11 70 0.0 0.0 0.00 0.00 0.00 60 1016.3
20260502055007 11 67 0.0 0.0 0.00 0.00 0.00 60 1016.4
20260502054507 11 70 0.0 0.0 0.00 0.00 0.00 61 1016.4
20260502054007 10 66 0.0 0.0 0.00 0.00 0.00 62 1016.4
20260502053008 10 49 0.0 0.0 0.00 0.00 0.00 64 1016.5
20260502052507 10 69 0.0 0.0 0.00 0.00 0.00 62 1016.5
20260502052008 10 69 0.0 0.0 0.00 0.00 0.00 62 1016.7
20260502051507 10 66 0.0 0.0 0.00 0.00 0.00 62 1016.6
20260502051014 10 66 0.0 0.0 0.00 0.00 0.00 62 1016.5
20260502050507 10 65 0.0 0.0 0.00 0.00 0.00 62 1016.5
20260502050007 10 57 0.0 0.0 0.00 0.00 0.00 62 1016.5
20260502045507 10 57 0.0 0.0 0.00 0.00 0.00 63 1016.5
20260502045007 10 74 0.0 0.0 0.00 0.00 0.00 63 1016.6
20260502044507 10 43 0.0 0.0 0.00 0.00 0.00 63 1016.6
20260502044008 10 48 0.0 0.0 0.00 0.00 0.00 64 1016.6
20260502043507 10 46 0.0 0.0 0.00 0.00 0.00 64 1016.5
20260502043007 10 53 0.0 0.0 0.00 0.00 0.00 64 1016.5
20260502042507 10 50 0.0 0.0 0.00 0.00 0.00 65 1016.4
20260502042008 10 70 0.0 0.0 0.00 0.00 0.00 65 1016.4
20260502041507 10 75 0.0 0.0 0.00 0.00 0.00 64 1016.4
20260502040507 10 46 0.0 0.0 0.00 0.00 0.00 64 1016.4
20260502040007 10 63 0.0 0.0 0.00 0.00 0.00 63 1016.4
20260502035507 10 57 0.0 0.0 0.00 0.00 0.00 62 1016.5
20260502035008 10 46 0.0 0.0 0.00 0.00 0.00 62 1016.4
20260502034007 10 50 0.0 0.0 0.00 0.00 0.00 63 1016.4
20260502033508 10 51 0.0 0.0 0.00 0.00 0.00 63 1016.3
20260502033008 10 42 0.0 0.0 0.00 0.00 0.00 62 1016.1
20260502032507 10 66 0.0 0.0 0.00 0.00 0.00 62 1016.2
20260502031507 10 51 0.0 0.0 0.00 0.00 0.00 62 1015.9
20260502031007 10 58 0.0 0.0 0.00 0.00 0.00 62 1015.9
20260502030507 10 67 0.0 0.0 0.00 0.00 0.00 62 1015.9
20260502030007 10 64 0.0 0.0 0.00 0.00 0.00 62 1016.1
20260502025507 10 60 0.0 0.0 0.00 0.00 0.00 62 1016.1
20260502025008 10 48 0.0 0.0 0.00 0.00 0.00 63 1016.2
20260502024507 10 45 0.0 0.0 0.00 0.00 0.00 64 1016.1
20260502024008 10 55 0.0 0.0 0.00 0.00 0.00 65 1016.2
20260502023507 10 60 0.0 0.0 0.00 0.00 0.00 65 1016.1
20260502022508 10 68 0.0 0.0 0.00 0.00 0.00 65 1016.1
20260502022008 10 49 0.0 0.0 0.00 0.00 0.00 65 1016.2
20260502021507 10 65 0.0 0.0 0.00 0.00 0.00 65 1016.2
20260502021007 10 60 0.0 0.0 0.00 0.00 0.00 65 1016.2
20260502020508 10 64 0.0 0.0 0.00 0.00 0.00 66 1016.2
20260502015508 10 40 0.0 0.0 0.00 0.00 0.00 68 1016.3
20260502015008 10 74 0.0 0.0 0.00 0.00 0.00 68 1016.3
20260502014507 10 66 0.0 0.0 0.00 0.00 0.00 68 1016.3
20260502013507 10 83 0.0 0.0 0.00 0.00 0.00 68 1016.4
20260502012507 10 59 0.0 0.0 0.00 0.00 0.00 67 1016.4
20260502011507 10 72 0.0 0.0 0.00 0.00 0.00 66 1016.4
20260502011007 10 67 0.0 0.0 0.00 0.00 0.00 67 1016.4
20260502010007 10 76 0.0 0.0 0.00 0.00 0.00 68 1016.4
20260502005507 10 70 0.0 0.0 0.00 0.00 0.00 68 1016.3
20260502005007 10 67 0.0 0.0 0.00 0.00 0.00 67 1016.3
20260502004508 10 63 0.0 0.0 0.00 0.00 0.00 66 1016.3
20260502004008 10 51 0.0 0.0 0.00 0.00 0.00 66 1016.2
20260502003507 10 56 0.0 0.0 0.00 0.00 0.00 65 1016.4
20260502002507 10 59 0.0 0.0 0.00 0.00 0.00 66 1016.4
20260502001507 10 63 0.0 0.0 0.00 0.00 0.00 67 1016.6
20260502001007 11 68 0.0 0.0 0.00 0.00 0.00 66 1016.7
20260502000507 11 74 0.0 0.0 0.00 0.00 0.00 66 1016.7
20260501235507 11 72 0.0 0.0 0.00 0.00 0.00 64 1016.7
20260501235007 11 65 0.0 0.0 0.00 0.00 0.00 63 1016.8
20260501234507 11 69 0.0 0.0 0.00 0.00 0.00 64 1016.7
20260501234008 11 60 0.0 0.0 0.00 0.00 0.00 65 1016.8
20260501233507 11 69 0.0 0.0 0.00 0.00 0.00 66 1016.8
20260501232507 11 72 0.0 0.0 0.00 0.00 0.00 67 1016.8
20260501232007 11 63 0.0 0.0 0.00 0.00 0.00 67 1016.9
20260501231508 11 61 0.0 0.0 0.00 0.00 0.00 66 1016.9
20260501231007 11 57 0.0 0.0 0.00 0.00 0.00 66 1016.9
20260501230507 11 60 0.0 0.0 0.00 0.00 0.00 66 1016.9
20260501230007 11 55 0.0 0.0 0.00 0.00 0.00 65 1017.0
20260501225507 11 71 0.0 0.0 0.00 0.00 0.00 65 1017.0
20260501224507 11 68 0.0 0.0 0.00 0.00 0.00 65 1017.1
20260501224007 11 72 0.0 0.0 0.00 0.00 0.00 65 1017.3
20260501223508 11 84 0.0 0.0 0.00 0.00 0.00 64 1017.3
20260501223007 11 64 0.0 0.0 0.00 0.00 0.00 64 1017.4
20260501222507 11 61 0.0 0.0 0.00 0.00 0.00 63 1017.4
20260501222007 11 59 0.0 0.0 0.00 0.00 0.00 63 1017.4